Weather in Il"yevka

Russia / Volgograd Oblast     48°38′50″N   43°38′08″E
temp.,
°C
wind,
m/s
gust,
m/s
humid.,
%
clouds,
%
prec.,
mm/h
press.,
hPa
HPBL,
m
3 march, wed
wed300:00+1w81397100 0.6 1012718
03:00+1w5998100 2.3 1011432
06:000w5898100 2.0 1010393
09:00+1nnw5793100 2.4 1011537
12:00+2nnw7973100 0.2 10121091
15:00+2nw7970100 0.3 10141247
18:000nw5108395 0.1 1016357
21:00−2nw4108270 0.1 1019482
4 march, thu
thu400:00−3wnw48840 0.0 1020368
03:00−3w48840 0.0 1021358
06:00−2wsw611790 0.0 1020401
09:00+1wsw914670 0.0 1019814
12:00+4wsw913560 0.0 10181161
15:00+5wsw913540 0.0 10161224
18:00+2sw715690 0.0 1015434
21:00+1sw817730 0.0 1015524
5 march, fri
fri500:00+1sw816780 0.0 1013531
03:00+1sw9178822 0.0 1013620
06:00+2sw9178790 0.0 1012776
09:00+3wsw9168495 0.0 1012794
12:00+5wsw101477100 0.0 1012937
15:00+6wsw71277100 0.0 1012974
18:00+4sw51185100 0.0 1013372
21:00+5sw61483100 0.1 1013609
6 march, sat
sat600:00+3ssw51288100 0.1 1012300
03:00+3sw81781100 0.1 1010618
06:00+3sw81683100 0.0 1009637
09:00+4wsw81387100 0.1 1010594
12:00+2nnw6877100 0.2 1012581
15:00+3nnw6864100 0.2 1013971
18:00+1n5664100 0.0 10151007
21:00−1n5765100 0.0 1017699
7 march, sun
sun700:00−2n4663100 0.0 1018539
03:00−3n3456100 0.0 1019542
06:00−3nw236219 0.0 1020325
09:00−2wsw344810 0.0 1021643
12:00+1wsw67390 0.0 10201424
15:00+2wsw8104430 0.0 10181655
18:000sw510584 0.0 1017358
21:00−1sw713635 0.0 1017503